Location: Lake Almanor
(40.2485°N, 121.1442°W)
Time: 02:30:55
(UTC-08:00)

STARLINK-1110 - Pass Details

Date: 28 January 2020
Orbit: 348 x 351 km, 53.0° (Epoch: 22 February)

Event Time Altitude Azimuth Distance (km) Brightness Sun altitude
Rises 18:26:24 0° 319° (NW) 2,177 7.1 -13.2°
Reaches altitude 10° 18:29:02 10° 345° (NNW) 1,330 5.6 -13.7°
Enters shadow 18:30:42 15° 19° (NNE) 1,090 4.8 -14.0°
